OSCAR 7 (AO-7) 1 07530U 74089B 26263.01476802 -.00000045 00000+0 98815-5 0 9995 2 07530 101.9920 277.2524 0011997 311.4967 75.2520 12.53699604372408 PHASE 3B (AO-10) 1 14129U 83058B 26263.04235856 -.00000060 00000+0 00000+0 0 9998 2 14129 25.9788 204.0605 5980330 141.6651 281.5604 2.05869937297448 UOSAT 2 (UO-11) 1 14781U 84021B 26263.18935485 .00001052 00000+0 11210-3 0 9993 2 14781 97.8181 227.7740 0006408 221.8303 138.2426 14.91001415271285 LUSAT (LO-19) 1 20442U 90005G 26263.06653483 .00000040 00000+0 30961-4 0 9996 2 20442 98.8820 287.4719 0010507 289.6266 70.3784 14.34144701915990 EYESAT A (AO-27) 1 22825U 93061C 26263.16552080 .00000029 00000+0 28062-4 0 9996 2 22825 98.6789 330.5008 0008483 174.2728 185.8553 14.30962074720584 ITAMSAT (IO-26) 1 22826U 93061D 26263.11656110 .00000033 00000+0 29246-4 0 9991 2 22826 98.6736 330.3794 0009321 158.3201 201.8378 14.31391062720890 RADIO ROSTO (RS15) 1 23439U 94085A 26263.19065186 -.00000041 00000+0 32523-4 0 9996 2 23439 64.8154 149.5686 0159270 346.8269 12.8520 11.27583932306617 JAS-2 (FO-29) 1 24278U 96046B 26262.79767312 .00000004 00000+0 40673-4 0 9995 2 24278 98.5165 98.6980 0349339 210.7684 147.2558 13.53278316485961 TECHSAT 1B (GO-32) 1 25397U 98043D 26262.96213589 .00000023 00000+0 29983-4 0 9990 2 25397 99.0159 258.1495 0000764 0.4741 359.6438 14.24443408464824 ISS (ZARYA) 1 25544U 98067A 26263.14255447 .00007470 00000+0 14267-3 0 9991 2 25544 51.6307 190.1401 0004820 160.6694 199.4478 15.49188396586472 PCSAT (NO-44) 1 26931U 01043C 26263.21788789 .00000036 00000+0 44436-4 0 9991 2 26931 67.0532 358.4725 0005840 273.0140 87.0293 14.31985037304056 SAUDISAT 1C (SO-50) 1 27607U 02058C 26262.21781256 .00000644 00000+0 93607-4 0 9999 2 27607 64.5523 198.0161 0071734 245.1928 114.1705 14.83218520278402 CUTE-1 (CO-55) 1 27844U 03031E 26262.30825485 .00000177 00000+0 95427-4 0 9990 2 27844 98.6773 269.7000 0008369 273.0739 86.9482 14.24383016205071 CUBESAT XI-IV (CO-57) 1 27848U 03031J 26262.97670074 .00000139 00000+0 80276-4 0 9993 2 27848 98.6806 269.9965 0008369 292.3957 67.6334 14.23661736204865 MOZHAETS 4 (RS22) 1 27939U 03042A 26263.21982360 .00000295 00000+0 53533-4 0 9997 2 27939 98.3485 90.2931 0010780 333.7987 137.9700 14.73604688229545 CUBESAT XI-V 1 28895U 05043F 26263.18061347 .00000826 00000+0 13738-3 0 9993 2 28895 98.3108 60.8821 0012770 263.6618 96.3135 14.72835202115735 CUTE-1.7+APD II (CO-65) 1 32785U 08021C 26263.21871522 .00003200 00000+0 19982-3 0 9999 2 32785 97.8388 246.7226 0010384 69.6600 290.5743 15.10202048999530 SEEDS II (CO-66) 1 32791U 08021J 26262.96547176 .00014057 00000+0 40691-3 0 9995 2 32791 97.7577 265.6353 0002394 30.6292 329.5090 15.35713894 1810 YUBILEINY (RS30) 1 32953U 08025A 26263.14309272 .00000034 00000+0 17043-3 0 9998 2 32953 82.5014 296.3825 0020713 104.0952 256.2431 12.43183099831491 KKS-1 (KISEKI) 1 33499U 09002H 26263.10743781 .00000870 00000+0 11304-3 0 9995 2 33499 98.1164 187.0497 0007674 353.4641 6.6471 14.83323401950260 SWISSCUBE 1 35932U 09051B 26263.19530078 .00000591 00000+0 12601-3 0 9996 2 35932 98.3943 172.7006 0005465 281.7132 78.3455 14.62630664903043 BEESAT-1 1 35933U 09051C 26262.98121095 .00000495 00000+0 10890-3 0 9999 2 35933 98.3868 171.9170 0004187 302.4264 57.6531 14.61845269903032 ITUPSAT1 1 35935U 09051E 26263.19243245 .00000456 00000+0 10381-3 0 9999 2 35935 98.3947 171.2198 0006546 311.8089 48.2551 14.60556516902608 XIWANG-1 (HOPE-1) 1 36122U 09072B 26263.16667453 -.00000190 00000+0 -38120-3 0 9997 2 36122 100.4129 215.5157 0007903 21.7777 338.3670 13.16440322805503 O/OREOS (USA 219) 1 37224U 10062C 26261.60859184 .00001582 00000+0 15374-3 0 9993 2 37224 71.9686 228.6645 0016487 250.1883 109.7510 14.94047704130594 JUGNU 1 37839U 11058B 26261.97317367 .00000378 00000+0 57931-4 0 9991 2 37839 19.9601 98.6261 0018563 32.4006 124.0056 14.13798990772317 SRMSAT 1 37841U 11058D 26263.01817206 .00000357 00000+0 49981-4 0 9991 2 37841 19.9709 205.4664 0011868 166.7244 270.3270 14.11593351771235 STRAND-1 1 39090U 13009E 26262.94884637 .00000167 00000+0 70421-4 0 9992 2 39090 98.3970 80.8876 0007750 313.4931 46.5611 14.37208561710670 ZACUBE-1 (TSHEPISOSAT) 1 39417U 13066B 26263.17297214 .00003336 00000+0 25646-3 0 9992 2 39417 97.8156 226.0092 0038977 295.0993 64.6188 15.01846354694980 GOMX-1 1 39430U 13066Q 26263.16835800 .00001266 00000+0 19453-3 0 9994 2 39430 97.6439 97.6452 0128912 131.7046 229.5275 14.69709394683862 CUBEBUG-2 (LO-74) 1 39440U 13066AA 26263.09835216 .00002265 00000+0 20952-3 0 9994 2 39440 97.8991 212.5547 0058631 72.8867 287.8762 14.94295020691161 FUNCUBE-1 (AO-73) 1 39444U 13066AE 26261.88615229 .00005265 00000+0 31844-3 0 9998 2 39444 97.8389 235.4218 0033773 243.5172 116.2592 15.10630929693800 UWE-3 1 39446U 13066AG 26262.30973042 .00003310 00000+0 28185-3 0 9991 2 39446 97.8815 219.0999 0048795 8.1790 352.0216 14.97587625691664 UNISAT-6 1 40012U 14033C 26263.19028738 .00001765 00000+0 19161-3 0 9994 2 40012 97.8006 54.3314 0045888 114.5582 246.0428 14.88647709660291 QB50P1 1 40025U 14033R 26263.01404549 .00004872 00000+0 23303-3 0 9992 2 40025 98.0973 280.9069 0006905 257.7849 102.2611 15.19503230667422 LILACSAT-2 1 40908U 15049K 26263.18543957 .00013422 00000+0 20581-3 0 9991 2 40908 97.4557 303.7944 0004614 259.0623 101.0112 15.54434736610490 FOX-1A (AO-85) 1 40967U 15058D 26263.18130433 .00001073 00000+0 10450-3 0 9990 2 40967 64.7756 343.6540 0138828 21.1010 339.5751 14.91402790127733 CAS-2T & KS-1Q 1 41847U 16066G 26262.98022853 .00000835 00000+0 12613-3 0 9999 2 41847 98.3748 337.6227 0340814 201.6995 156.9462 14.44849840518482 RADFXSAT (FOX-1B) 1 43017U 17073E 26262.89417123 .00006111 00000+0 26021-3 0 9998 2 43017 97.4551 128.1747 0147209 1.9522 358.2253 15.13974742479719 DIWATA-2B 1 43678U 18084H 26263.18965072 .00000913 00000+0 77117-4 0 9995 2 43678 98.1174 103.5804 0011959 209.8877 150.1664 15.00738558430469 ES'HAIL 2 1 43700U 18090A 26263.06859270 .00000140 00000+0 00000+0 0 9991 2 43700 0.0190 191.4174 0001224 323.4842 254.5471 1.00270970 28620 FOX-1CLIFF (AO-95) 1 43770U 18099N 26263.12239024 .00007863 00000+0 28592-3 0 9992 2 43770 97.4285 323.0885 0008479 22.9515 337.2102 15.28501039427712 ITASAT 1 43786U 18099AE 26261.39700705 .00004670 00000+0 21918-3 0 9993 2 43786 97.3931 311.0652 0012942 33.8772 326.3287 15.20055674427063 JY1SAT (JO-97) 1 43803U 18099AX 26262.41966991 .00012286 00000+0 34786-3 0 9997 2 43803 97.4022 325.7200 0003853 296.9693 63.1158 15.36423222428082 UWE-4 1 43880U 18111E 26260.79047191 .00032620 00000+0 54348-3 0 9998 2 43880 97.5815 193.8360 0006557 15.6860 344.4594 15.51924947425112 TIANYAN 01 1 44881U 19093C 26263.15342491 .00000638 00000+0 77760-4 0 9992 2 44881 97.7446 333.0332 0014586 130.1550 230.0946 14.86638406365521 RS-44 & BREEZE-KM R/B 1 44909U 19096E 26263.07123823 .00000019 00000+0 40325-4 0 9993 2 44909 82.5167 276.6553 0216349 282.6062 75.0925 12.79749405314488 SALSAT 1 46495U 20068K 26263.01745682 .00005124 00000+0 17393-3 0 9993 2 46495 97.8892 271.9626 0008600 339.9405 20.1496 15.30977638329862 XW-3 (CAS-9) 1 50466U 21131B 26263.22582111 .00000315 00000+0 11084-3 0 9995 2 50466 98.4968 355.0976 0004478 157.9559 202.1824 14.41428572248805 GREENCUBE (IO-117) 1 53109U 22080E 26262.49992317 -.00000003 00000+0 00000+0 0 9994 2 53109 70.1205 265.4390 0009216 269.3094 90.6509 6.42583827 98129 UMKA 1 (RS40S) 1 57172U 23091G 26263.13962097 .00003667 00000+0 16472-3 0 9997 2 57172 97.4952 321.4805 0013457 142.5951 217.6224 15.21718920178444 CUBESX-HSE 3 (RS42S) 1 57178U 23091N 26263.12589992 .00009714 00000+0 30377-3 0 9990 2 57178 97.4995 330.0083 0011479 113.1326 247.1127 15.33296260178961 MONITOR-3 (RS58S) 1 57180U 23091Q 26263.17738175 .00007255 00000+0 25605-3 0 9993 2 57180 97.4986 327.3828 0012468 121.2859 238.9604 15.29473432178804 MONITOR-4 (RS57S) 1 57182U 23091S 26263.15092654 .00007214 00000+0 25391-3 0 9995 2 57182 97.4980 327.3326 0012466 121.5754 238.6705 15.29564924178804 MONITOR-2 (RS39S) 1 57184U 23091U 26263.15401890 .00002932 00000+0 14062-3 0 9998 2 57184 97.4971 320.8184 0012079 136.4638 223.7552 15.19634505178371 SVYATOBOR 1 (RS60S) 1 57187U 23091X 26263.18831959 .00006051 00000+0 22403-3 0 9991 2 57187 97.4993 327.5748 0010494 114.8122 245.4210 15.27991698178814 VIZARD-METEO (RS38S) 1 57189U 23091Z 26263.17374882 .00012497 00000+0 32789-3 0 9998 2 57189 97.5001 334.7071 0008026 92.8886 267.3278 15.38762914179284 POLYTECH-UNIVERSE 3 (R*) 1 57191U 23091AB 26263.16787225 .00003135 00000+0 14900-3 0 9993 2 57191 97.4948 320.3374 0015933 153.2675 206.9385 15.19853628178375 UTMN 2 (RS27S) 1 57203U 23091AP 26263.15826545 .00009275 00000+0 28316-3 0 9992 2 57203 97.4995 331.7893 0008856 101.6036 258.6201 15.34100983179094 KUZGTU 1 (RS47S) 1 57217U 23091AV 26263.14166373 .00008768 00000+0 28801-3 0 9997 2 57217 97.4967 328.6693 0011751 117.1917 243.0523 15.31746096178901 SONATE-2 1 59112U 24043Q 26263.18449285 .00045310 00000+0 43676-3 0 9992 2 59112 97.5624 60.0165 0005401 207.1016 152.9962 15.66376204142728 MESAT1 1 60209U 24125G 26263.06128933 .00093776 00000+0 59038-3 0 9991 2 60209 97.2098 123.4684 0006351 199.4041 160.6984 15.76391633124448 GRBBETA 1 60237U 24128C 26262.37864986 .00002199 00000+0 15861-3 0 9998 2 60237 61.9884 245.6471 0026821 155.3628 204.8753 15.07194513120462 OOV-CUBE (TUBSAT-30) 1 60240U 24128F 26262.53004014 .00001131 00000+0 98208-4 0 9990 2 60240 61.9927 256.5162 0031252 155.7400 204.5171 15.03107778120293 COLIBRI-S (RS67S) 1 61746U 24199M 26263.17996220 .00018584 00000+0 31542-3 0 9997 2 61746 97.2796 138.0715 0005736 304.7394 55.3318 15.51517931152126 HORS 3 (RS81S) 1 61753U 24199U 26263.12577600 .00037686 00000+0 43289-3 0 9992 2 61753 97.2793 141.2409 0002470 299.6846 60.4166 15.61956120152343 HORS 4 (RS82S) 1 61754U 24199V 26263.15712531 .00067927 00000+0 55933-3 0 9990 2 61754 97.2724 143.2967 0001213 254.8060 105.3068 15.70181963152495 SIT-2086 1 61764U 24199AF 26263.09053299 .00038143 00000+0 47116-3 0 9995 2 61764 97.2749 141.3501 0003007 265.8582 94.2331 15.60051159149194 ALTAIR (RS65S) 1 61779U 24199AW 26263.17800488 .00005751 00000+0 15277-3 0 9992 2 61779 97.2871 131.9342 0011209 332.1232 27.9412 15.38600595151710 ASRTU-1 (AO-123) 1 61781U 24199AY 26263.06490294 .00005663 00000+0 15882-3 0 9997 2 61781 97.2840 130.8855 0012506 335.3562 24.7083 15.36906202148490 SAMSAT-IONOSPHERE (RS7*) 1 61784U 24199BB 26263.12379939 .00059218 00000+0 55211-3 0 9994 2 61784 97.2744 141.7799 0003578 288.6926 71.3946 15.67160074152389 RTU MIREA 1 (RS51S) 1 61785U 24199BC 26263.16910287 .00092497 00000+0 63882-3 0 9995 2 61785 97.2723 143.3547 0002235 267.0738 93.0271 15.74279618149344 LASARSAT 1 62391U 24247Q 26262.82201671 .00033498 00000+0 53930-3 0 9994 2 62391 44.9718 88.0673 0009767 232.1281 127.8728 15.52377278 97992 CROCUBE 1 62394U 24247T 26262.80341868 .00041029 00000+0 59075-3 0 9993 2 62394 44.9694 83.5666 0010408 241.5864 118.3980 15.55353066 98049 TEVEL2-4 1 63213U 25052D 26262.95907181 .00014116 00000+0 38323-3 0 9991 2 63213 97.3757 159.6486 0004446 109.3415 250.8311 15.37696233 84664 TEVEL2-5 1 63214U 25052E 26262.47114869 .00014048 00000+0 38435-3 0 9990 2 63214 97.3755 159.0762 0004348 111.7461 248.4247 15.37454822 84581 TEVEL2-6 1 63215U 25052F 26261.50926385 .00014679 00000+0 40221-3 0 9994 2 63215 97.3757 158.0953 0004217 114.8567 245.3116 15.37399635 84436 TEVEL2-1 1 63217U 25052H 26262.16012861 .00013111 00000+0 36695-3 0 9994 2 63217 97.3727 158.2529 0004201 121.9351 238.2303 15.36766162 84519 TEVEL2-3 1 63218U 25052J 26262.47623284 .00013663 00000+0 38124-3 0 9997 2 63218 97.3733 158.6068 0003969 121.0354 239.1280 15.36851694 84567 TEVEL2-2 1 63219U 25052K 26262.15970493 .00013009 00000+0 36394-3 0 9991 2 63219 97.3728 158.2570 0004214 122.5540 237.6112 15.36780306 84516 OTP-2 1 63235U 25052AB 26262.41326886 .00005498 00000+0 22242-3 0 9999 2 63235 97.3717 153.4405 0005947 173.2242 186.9077 15.25100896 84224 TEVEL2-9 1 63237U 25052AD 26262.98308321 .00012161 00000+0 36515-3 0 9990 2 63237 97.3790 158.2348 0006777 145.7016 214.4666 15.34562116 84555 TEVEL2-7 1 63238U 25052AE 26261.93559823 .00011822 00000+0 35948-3 0 9992 2 63238 97.3793 157.0587 0006577 150.2751 209.8867 15.34170084 84387 TEVEL2-8 1 63239U 25052AF 26261.16192927 .00011984 00000+0 36466-3 0 9991 2 63239 97.3792 156.2599 0006556 151.7923 208.3676 15.34143407 84263 INNOSAT 16 (RS92S7) 1 64878U 25155C 26262.95664200 .00004007 00000+0 15692-3 0 9997 2 64878 97.4687 229.9053 0009363 201.8157 158.2684 15.26353095 95121 GEOSCAN 6 (RS92S6) 1 64879U 25155D 26262.95262298 .00007463 00000+0 24551-3 0 9992 2 64879 97.4672 232.0452 0007030 184.3848 175.7333 15.31795089 95264 GEOSCAN 1 (RS92S1) 1 64880U 25155E 26262.91352795 .00008234 00000+0 26441-3 0 9999 2 64880 97.4667 232.2461 0006924 183.5692 176.5502 15.32536668 95276 239ALFEROV (RS61S) 1 64881U 25155F 26262.92517147 .00011303 00000+0 33150-3 0 9991 2 64881 97.4662 233.1779 0006561 179.4538 180.6714 15.35329169 95331 GEOSCAN 2 (RS92S2) 1 64890U 25155Q 26262.95678649 .00008150 00000+0 25976-3 0 9992 2 64890 97.4667 232.4780 0006848 168.5691 191.5708 15.32782489 95291 GEOSCAN 5 (RS92S5) 1 64891U 25155R 26262.96084330 .00010695 00000+0 31099-3 0 9992 2 64891 97.4656 233.3859 0005416 180.5495 179.5743 15.35620543 95350 GEOSCAN 4 (RS92S4) 1 64892U 25155S 26262.93409007 .00011702 00000+0 33787-3 0 9998 2 64892 97.4661 233.4394 0005296 179.3553 180.7698 15.35818223 95356 GEOSCAN 3 (RS92S3) 1 64893U 25155T 26262.92381891 .00015027 00000+0 39814-3 0 9999 2 64893 97.4645 234.1741 0005303 176.0463 184.0825 15.38433097 95406 INNOSAT 3 (RS92S0) 1 64894U 25155U 26262.92680377 .00040668 00000+0 69976-3 0 9992 2 64894 97.4583 237.2333 0005154 153.5008 206.6508 15.50980373 95618 KNACKSAT-2 1 67683U 98067XZ 26262.25468691 .00061304 00000+0 51271-3 0 9991 2 67683 51.6237 178.1756 0008279 181.0467 179.0514 15.69367004 35000 MARINA 1 69920U 26156BD 26262.44666364 .00001315 00000+0 13464-3 0 9993 2 69920 97.7440 161.6799 0005835 270.1869 89.8681 14.92176795 11050